Preview of NWS' New Version of Forecast
This preview is not operational and should not be used for support decisions.

Regional Weather Roundup (RWR)

Issued by Gray - Portland, ME (GYX)

                            
000
ASUS41 KGYX 201810
RWRGYX
WEATHER ROUNDUP FOR MAINE AND NEW HAMPSHIRE
NATIONAL WEATHER SERVICE GRAY ME
200 PM EDT THU JUN 20 2019

MEZ002-005-006-010-012-015-018-020-021-024-026-027-029-201900-
MAINE
  
CITY           SKY/WX    TMP DP  RH WIND       PRES   REMARKS
PORTLAND       LGT RAIN  56  55  97 E6        29.65F FOG              
6HR MIN TEMP:  56; 6HR MAX TEMP:  59; 6HR PCP:  0.24;                

SANFORD        RAIN      59  59 100 E5        29.63F FOG              
BAR HARBOR     CLOUDY    56  54  93 E5        29.72F                  
WISCASSET      LGT RAIN  58  57  97 E5        29.67F FOG              
6HR MIN TEMP:  57; 6HR MAX TEMP:  60; 6HR PCP:  0.03;                

ROCKLAND       LGT RAIN  55  55 100 E9        29.69F VSB 1/2          
FRYEBURG       HVY RAIN  61  59  93 E7        29.63F FOG              
6HR MIN TEMP:  61; 6HR MAX TEMP:  63; 6HR PCP:  0.35;                

LEWISTONAUBURN HVY RAIN  60  59  96 SE8       29.65F FOG              
AUGUSTA        HVY RAIN  59  59 100 SE7       29.67F FOG              
6HR MIN TEMP:  57; 6HR MAX TEMP:  62; 6HR PCP:  0.06;                

WATERVILLE     LGT RAIN  62  61  96 VRB3      29.65F                  
BANGOR         CLOUDY    62  59  90 SE9       29.69F FOG              
6HR MIN TEMP:  60; 6HR MAX TEMP:  64;                                

GREENVILLE       N/A     59  58  96 SE9       29.66F                  
6HR MIN TEMP:  56; 6HR MAX TEMP:  59;                                

MILLINOCKET    CLOUDY    63  60  90 E3        29.69F FOG              
6HR MIN TEMP:  59; 6HR MAX TEMP:  63;                                

HOULTON        LGT RAIN  61  59  93 VRB3      29.70F                  
6HR MIN TEMP:  56; 6HR MAX TEMP:  61; 6HR PCP:  0.03;                

PRESQUE ISLE   LGT RAIN  59  58  96 S7        29.72F                  
6HR MIN TEMP:  58; 6HR MAX TEMP:  60; 6HR PCP:  0.13;                

FRENCHVILLE    LGT RAIN  63  58  83 CALM      29.71F                  
6HR MIN TEMP:  59; 6HR MAX TEMP:  63; 6HR PCP:  0.03;                

CARIBOU        LGT RAIN  61  58  90 S5        29.70F                  
6HR MIN TEMP:  59; 6HR MAX TEMP:  62; 6HR PCP:  0.07;                

$$

NHZ002-005-008-009-011-012-014-201900-
NEW HAMPSHIRE
  
CITY           SKY/WX    TMP DP  RH WIND       PRES   REMARKS
PORTSMOUTH     LGT RAIN  59  59 100 SE9       29.60F FOG              
ROCHESTER      LGT RAIN  61  59  93 VRB6      29.61F FOG              
6HR MIN TEMP:  60; 6HR MAX TEMP:  62; 6HR PCP:  0.21;                

NASHUA         CLOUDY    66  66 100 SE7       29.59F                  
MANCHESTER     CLOUDY    66  63  90 E7        29.58F                  
6HR MIN TEMP:  65; 6HR MAX TEMP:  67; 6HR PCP:  0.33;                

CONCORD        LGT RAIN  63  61  93 VRB3      29.59F FOG              
6HR MIN TEMP:  62; 6HR MAX TEMP:  65; 6HR PCP:  0.20;                

LACONIA        LGT RAIN  63  61  93 E9        29.60F                  
PLYMOUTH       CLOUDY    64  62  93 E8        29.59F FOG              
BERLIN         HVY RAIN  64  61  90 CALM      29.62S VSB 1/2          
6HR MIN TEMP:  65; 6HR MAX TEMP:  71; 6HR PCP:  0.27;                

WHITEFIELD     LGT RAIN  65  62  90 NE8       29.58F                  
6HR MIN TEMP:  65; 6HR MAX TEMP:  72; 6HR PCP:  0.32;                

JAFFREY        CLOUDY    68  65  90 VRB6      29.59F                  
6HR MIN TEMP:  66; 6HR MAX TEMP:  68; 6HR PCP:  0.13;                

KEENE          CLOUDY    70  67  90 S5        29.56F                  
LEBANON        LGT RAIN  70  63  78 VRB3      29.53F                  
6HR MIN TEMP:  69; 6HR MAX TEMP:  71; 6HR PCP:  0.06;                

MT WASHINGTON  NOT AVBL                                               
$$

VTZ005-007-008-201900-
VERMONT
  
CITY           SKY/WX    TMP DP  RH WIND       PRES   REMARKS
ST JOHNSBURY     N/A     66  66 100 MISG      29.54F                  
MONTPELIER     HVY RAIN  63  63 100 NE6       29.58F VSB 3/4          
BURLINGTON     HVY RAIN  68  66  93 NE7       29.53F FOG              
$$

MAZ007-012-024-CTZ003-RIZ002-NYZ038-NYZ072-201900-
SOUTHERN NEW ENGLAND AND NY
  
CITY           SKY/WX    TMP DP  RH WIND       PRES   REMARKS
BOSTON         FOG       63  60  90 E5        29.60F VSB 1/4          
WORCESTER      CLOUDY    67  67 100 S10       29.60F FOG              
NANTUCKET      FOG       63  61  93 SE13      29.66F VSB 3/4          
HARTFORD       DRIZZLE   73  69  87 S9        29.56F FOG              
ALBANY         CLOUDY    74  66  76 S13G21    29.51F                  
NEW YORK CITY  PTSUNNY   75  70  84 SE10      29.54F                  
$$

ANZ081-ANZ082-ANZ150-NHZ014-MEZ023>029-201900-
COASTAL MARINE OBSERVATIONS
  
STATION/POSITION TIME  TEMP    WIND        PRES    WAVE
                       AIR SEA DIR/SP/G            HT/PER
                 (UTC) (F)     (DEG/KT/KT) (MB)    (FT/S)
ISLE OF SHOALS   1700   57     140/  6/  7 1004.0F
JEFFREYS LEDGE   1738      57                N/A     2/ 6
CASHES LEDGE BUO 1750   54 53  130/ 12/ 14 1004.7F   3/ 8
GEORGES BANK BUO 1750   55 53   60/  6/  6 1006.0F   3/ 7
$$

.............KEY..............
   WCI - WIND CHILL
   TC  - TEMPERATURE IN CELSIUS
   VSB - VISIBILITY IN MILES
   HX  - HEAT INDEX
   FAIR- INDICATES FEW OR NO CLOUDS BELOW 12,000 FT, WITH NO 
         SIGNIFICANT WEATHER AND/OR OBSTRUCTIONS TO VISIBILITY.